When you browse on this site, cookies collect data to enhance your experience and personalize the content and advertising you see.
Visit our Privacy Policy to learn more. By continuing to use the site, you agree to this use of cookies and data.
  • In Schweiz
  • Länderverzeichnis
  • Für 7 Tage
  • Wassertemperatur
  • Satellitenkarten
  • Wetterkarte
  • Widgets
  • user-avatar
    Anmelden

    Stündliche Wetter Franceville

    Heute, 23 Juli, Dienstag

    Zeit Temperatur Niederschläge Wind Luftdruck Luftfeuchtigkeit
    00:00 +25°C° 0 mm 1 m/S 732 mmHg 81%
    01:00 +24°C° 0 mm 1 m/S 732 mmHg 82%
    02:00 +24°C° 0 mm 1 m/S 732 mmHg 83%
    03:00 +23°C° 0 mm 1 m/S 732 mmHg 84%
    04:00 +21°C° 0 mm 0 m/S 732 mmHg 85%
    05:00 +23°C° 0 mm 1 m/S 732 mmHg 85%
    06:00 +23°C° 0 mm 1 m/S 733 mmHg 85%
    07:00 +23°C° 0 mm 1 m/S 733 mmHg 85%
    08:00 +26°C° 0 mm 1 m/S 733 mmHg 75%
    09:00 +28°C° 0 mm 1 m/S 733 mmHg 65%
    10:00 +31°C° 0 mm 1 m/S 734 mmHg 54%
    11:00 +33°C° 0 mm 1 m/S 733 mmHg 48%
    12:00 +35°C° 0 mm 1 m/S 732 mmHg 42%
    13:00 +37°C° 0 mm 1 m/S 732 mmHg 36%
    14:00 +36°C° 0 mm 1 m/S 731 mmHg 37%
    15:00 +35°C° 0 mm 1 m/S 730 mmHg 37%
    16:00 +35°C° 0 mm 1 m/S 729 mmHg 38%
    17:00 +33°C° 0 mm 1 m/S 729 mmHg 42%
    18:00 +32°C° 0 mm 1 m/S 730 mmHg 47%
    19:00 +30°C° 0 mm 1 m/S 730 mmHg 51%
    20:00 +30°C° 0 mm 1 m/S 730 mmHg 54%
    21:00 +27°C° 0 mm 0 m/S 731 mmHg 57%
    22:00 +26°C° 0 mm 0 m/S 731 mmHg 59%
    23:00 +28°C° 0 mm 1 m/S 731 mmHg 61%

    Morgen, 24 Juli, Mittwoch

    Zeit Temperatur Niederschläge Wind Luftdruck Luftfeuchtigkeit
    00:00 +28°C° 0 mm 1 m/S 731 mmHg 62%
    01:00 +27°C° 0 mm 1 m/S 731 mmHg 64%
    02:00 +26°C° 0 mm 1 m/S 731 mmHg 67%
    03:00 +25°C° 0 mm 1 m/S 730 mmHg 71%
    04:00 +23°C° 0 mm 0 m/S 730 mmHg 75%
    05:00 +23°C° 0 mm 0 m/S 730 mmHg 75%
    06:00 +23°C° 0 mm 0 m/S 731 mmHg 76%
    07:00 +23°C° 0 mm 0 m/S 731 mmHg 77%
    08:00 +27°C° 0 mm 1 m/S 732 mmHg 68%
    09:00 +30°C° 0 mm 1 m/S 732 mmHg 58%
    10:00 +32°C° 0 mm 1 m/S 732 mmHg 49%
    11:00 +34°C° 0 mm 1 m/S 732 mmHg 44%
    12:00 +36°C° 0 mm 1 m/S 731 mmHg 39%
    13:00 +39°C° 0 mm 1 m/S 731 mmHg 34%
    14:00 +37°C° 0 mm 1 m/S 730 mmHg 33%
    15:00 +37°C° 0 mm 1 m/S 729 mmHg 33%
    16:00 +34°C° 0 mm 0 m/S 728 mmHg 32%
    17:00 +35°C° 0 mm 1 m/S 729 mmHg 37%
    18:00 +33°C° 0 mm 1 m/S 729 mmHg 42%
    19:00 +31°C° 0 mm 1 m/S 730 mmHg 48%
    20:00 +30°C° 0.3 mm 2 m/S 730 mmHg 56%
    21:00 +29°C° 0.3 mm 2 m/S 731 mmHg 64%
    22:00 +28°C° 0.3 mm 2 m/S 731 mmHg 72%
    23:00 +27°C° 0.6 mm 2 m/S 731 mmHg 76%

    übermorgen, 25 Juli, Donnerstag

    Zeit Temperatur Niederschläge Wind Luftdruck Luftfeuchtigkeit
    00:00 +27°C° 0.6 mm 2 m/S 731 mmHg 79%
    01:00 +26°C° 0.6 mm 2 m/S 732 mmHg 82%
    02:00 +25°C° 0 mm 1 m/S 731 mmHg 83%
    03:00 +25°C° 0 mm 1 m/S 731 mmHg 84%
    04:00 +24°C° 0 mm 1 m/S 731 mmHg 86%
    05:00 +24°C° 0 mm 1 m/S 732 mmHg 85%
    06:00 +24°C° 0 mm 1 m/S 732 mmHg 85%
    07:00 +24°C° 0 mm 1 m/S 733 mmHg 84%
    08:00 +26°C° 0 mm 1 m/S 733 mmHg 77%
    09:00 +27°C° 0 mm 1 m/S 733 mmHg 70%
    10:00 +29°C° 0 mm 2 m/S 734 mmHg 63%
    11:00 +31°C° 0 mm 1 m/S 733 mmHg 56%
    12:00 +33°C° 0 mm 1 m/S 733 mmHg 49%
    13:00 +35°C° 0 mm 1 m/S 732 mmHg 42%
    14:00 +35°C° 0 mm 1 m/S 731 mmHg 41%
    15:00 +35°C° 0 mm 1 m/S 730 mmHg 39%
    16:00 +35°C° 0 mm 1 m/S 730 mmHg 38%
    17:00 +33°C° 0 mm 1 m/S 730 mmHg 45%
    18:00 +31°C° 0 mm 1 m/S 730 mmHg 52%
    19:00 +30°C° 0 mm 1 m/S 731 mmHg 59%
    20:00 +29°C° 0.1 mm 1 m/S 731 mmHg 62%
    21:00 +27°C° 0.1 mm 2 m/S 732 mmHg 66%
    22:00 +26°C° 0.1 mm 2 m/S 732 mmHg 70%
    23:00 +26°C° 0 mm 2 m/S 732 mmHg 71%

    26 Juli, Freitag

    Zeit Temperatur Niederschläge Wind Luftdruck Luftfeuchtigkeit
    00:00 +25°C° 0 mm 1 m/S 732 mmHg 73%
    01:00 +25°C° 0 mm 1 m/S 732 mmHg 74%
    02:00 +24°C° 0 mm 1 m/S 732 mmHg 76%
    03:00 +24°C° 0 mm 1 m/S 732 mmHg 78%
    04:00 +23°C° 0 mm 1 m/S 732 mmHg 79%
    05:00 +23°C° 0 mm 1 m/S 732 mmHg 79%
    06:00 +23°C° 0 mm 1 m/S 732 mmHg 79%
    07:00 +23°C° 0 mm 1 m/S 733 mmHg 79%
    08:00 +25°C° 0 mm 1 m/S 733 mmHg 70%
    09:00 +28°C° 0 mm 1 m/S 733 mmHg 61%
    10:00 +30°C° 0 mm 2 m/S 734 mmHg 52%
    11:00 +32°C° 0 mm 2 m/S 733 mmHg 46%
    12:00 +34°C° 0 mm 2 m/S 732 mmHg 41%
    13:00 +36°C° 0 mm 2 m/S 732 mmHg 35%
    14:00 +36°C° 0 mm 2 m/S 731 mmHg 34%
    15:00 +36°C° 0 mm 2 m/S 730 mmHg 33%
    16:00 +36°C° 0 mm 2 m/S 730 mmHg 33%
    17:00 +34°C° 0 mm 2 m/S 730 mmHg 38%
    18:00 +31°C° 0 mm 2 m/S 730 mmHg 43%
    19:00 +29°C° 0 mm 2 m/S 730 mmHg 48%
    20:00 +28°C° 0 mm 1 m/S 731 mmHg 52%
    21:00 +28°C° 0 mm 1 m/S 732 mmHg 55%
    22:00 +27°C° 0 mm 1 m/S 732 mmHg 58%
    23:00 +26°C° 0 mm 1 m/S 732 mmHg 60%

    27 Juli, Samstag

    Zeit Temperatur Niederschläge Wind Luftdruck Luftfeuchtigkeit
    00:00 +26°C° 0 mm 1 m/S 732 mmHg 62%
    01:00 +25°C° 0 mm 1 m/S 732 mmHg 64%
    02:00 +24°C° 0 mm 1 m/S 732 mmHg 66%
    03:00 +24°C° 0 mm 1 m/S 732 mmHg 69%
    04:00 +23°C° 0 mm 1 m/S 732 mmHg 72%
    05:00 +23°C° 0 mm 1 m/S 732 mmHg 73%
    06:00 +23°C° 0 mm 1 m/S 732 mmHg 74%
    07:00 +23°C° 0 mm 1 m/S 733 mmHg 75%
    08:00 +25°C° 0 mm 1 m/S 733 mmHg 66%
    09:00 +27°C° 0 mm 1 m/S 733 mmHg 58%
    10:00 +30°C° 0 mm 2 m/S 734 mmHg 49%
    11:00 +31°C° 0 mm 2 m/S 733 mmHg 42%
    12:00 +34°C° 0 mm 2 m/S 732 mmHg 36%
    13:00 +36°C° 0 mm 2 m/S 731 mmHg 29%
    14:00 +36°C° 0 mm 2 m/S 731 mmHg 29%
    15:00 +36°C° 0 mm 2 m/S 730 mmHg 28%
    16:00 +36°C° 0 mm 2 m/S 730 mmHg 28%
    17:00 +33°C° 0 mm 1 m/S 730 mmHg 34%
    18:00 +31°C° 0 mm 1 m/S 730 mmHg 40%
    19:00 +29°C° 0 mm 1 m/S 730 mmHg 46%
    20:00 +28°C° 0 mm 1 m/S 731 mmHg 49%
    21:00 +25°C° 0 mm 0 m/S 732 mmHg 52%
    22:00 +25°C° 0 mm 0 m/S 732 mmHg 55%
    23:00 +26°C° 0 mm 1 m/S 732 mmHg 57%

    28 Juli, Sonntag

    Zeit Temperatur Niederschläge Wind Luftdruck Luftfeuchtigkeit
    00:00 +25°C° 0 mm 1 m/S 732 mmHg 60%
    01:00 +25°C° 0 mm 1 m/S 732 mmHg 62%
    02:00 +24°C° 0 mm 1 m/S 732 mmHg 62%
    03:00 +24°C° 0 mm 1 m/S 732 mmHg 63%
    04:00 +23°C° 0 mm 1 m/S 732 mmHg 63%
    05:00 +23°C° 0 mm 1 m/S 732 mmHg 66%
    06:00 +23°C° 0 mm 1 m/S 732 mmHg 68%
    07:00 +23°C° 0 mm 1 m/S 733 mmHg 71%
    08:00 +25°C° 0 mm 1 m/S 733 mmHg 64%
    09:00 +28°C° 0 mm 1 m/S 733 mmHg 56%
    10:00 +30°C° 0 mm 1 m/S 734 mmHg 49%
    11:00 +32°C° 0 mm 1 m/S 733 mmHg 44%
    12:00 +34°C° 0 mm 2 m/S 732 mmHg 38%
    13:00 +36°C° 0 mm 2 m/S 732 mmHg 33%
    14:00 +36°C° 0 mm 2 m/S 731 mmHg 32%
    15:00 +36°C° 0 mm 2 m/S 731 mmHg 31%
    16:00 +36°C° 0 mm 2 m/S 730 mmHg 31%
    17:00 +34°C° 0 mm 2 m/S 730 mmHg 36%
    18:00 +31°C° 0 mm 1 m/S 731 mmHg 42%
    19:00 +29°C° 0 mm 1 m/S 731 mmHg 48%
    20:00 +28°C° 0 mm 1 m/S 731 mmHg 49%
    21:00 +27°C° 0 mm 1 m/S 732 mmHg 51%
    22:00 +26°C° 0 mm 1 m/S 733 mmHg 52%
    23:00 +26°C° 0 mm 1 m/S 733 mmHg 54%
    Mehr zeigen